Flag for U.S.A. Weather past 2 weeks in New York, New York, U.S.A.

Now
67 °F

Light rain. Fog.


Feels Like: 67 °F
Forecast: 69 / 76 °F
Wind: No wind

Location: New York City - Central Park

Current Time: Aug 22, 2014 at 2:41:26 AM

Latest Report: Aug 22, 2014 at 1:49 AM


Visibility: 4 mi

Pressure: 30.02 "Hg

Humidity: 93%

Dew point: 65 °F

Location of New YorkLocation

Historic Weather in New York — Graph

°F

New York temperature yesterday

Maximum temperature yesterday: 82 °F (at 1:51 PM)
Minimum temperature yesterday: 66 °F (at 5:51 AM)
Average temperature yesterday: 74 °F

Past Weeks' High & Low Weather Summary

 TemperatureHumidityPressure
High87 °F (Aug 10, 1:51 PM)93% (Aug 13, 1:51 AM)30.14 "Hg (Aug 13, 1:51 AM)
Low61 °F (Aug 15, 5:51 AM)27% (Aug 9, 1:51 PM)29.65 "Hg (Aug 13, 4:51 PM)
Average73 °F56%29.96 "Hg
* Reported Aug 7 12:51 AM — Aug 22 12:51 AM, New York, Weather by CustomWeather, © 2014

Note: Actual official high and low records may vary slightly from our data, if they occured in-between our weather recording intervals... More about our weather records

Advertising

New York weather history for previous 24 hours

 ConditionsComfort  
Time TempWeatherWind HumidityBarometerVisibility
12:51 AM
Aug 22
66 °FLight rain. Fog.3 mph93%30.02 "Hg5 mi
11:58 PM
Aug 21
69 °FHeavy rain. Fog.7 mph90%30.09 "Hg1 mi
10:51 PM72 °FLight rain. Overcast.No wind73%30.02 "Hg9 mi
9:51 PM73 °FOvercast.3 mph69%30.03 "Hg10 mi
8:51 PM73 °FClear.7 mph69%30.03 "Hg10 mi
7:51 PM73 °FSunny.8 mph62%30.03 "Hg10 mi
6:51 PM74 °FSunny.N/A52%30.01 "Hg10 mi
5:51 PM76 °FSunny.8 mph48%30.01 "Hg10 mi
4:51 PM76 °FSunny.N/A50%30.02 "Hg10 mi
3:51 PM78 °FSunny.9 mph52%30.02 "Hg10 mi
2:51 PM78 °FPartly sunny.6 mph56%30.03 "Hg10 mi
1:51 PM82 °FScattered clouds.7 mph53%30.03 "Hg10 mi
12:51 PM81 °FPassing clouds.5 mph54%30.04 "Hg10 mi
11:51 AM80 °FPassing clouds.6 mph52%30.04 "Hg10 mi
10:51 AM77 °FScattered clouds.3 mph60%30.05 "Hg10 mi
9:51 AM75 °FOvercast.No wind66%30.06 "Hg9 mi
8:51 AM72 °FSunny.No wind76%30.06 "Hg10 mi
7:51 AM69 °FSunny.No wind81%30.06 "Hg10 mi
6:51 AM67 °FOvercast.No wind87%30.04 "Hg9 mi
5:51 AM66 °FOvercast.No wind90%30.04 "Hg9 mi
4:51 AM69 °FLight rain. Overcast.No wind79%30.03 "Hg6 mi
3:51 AM71 °FMostly cloudy.No wind71%30.02 "Hg10 mi
2:51 AM72 °FPassing clouds.3 mph68%30.03 "Hg10 mi
Weather by CustomWeather, © 2014

See weather overviewHow to use our weather pages